| time (UTC) | temp F | wind direction | speed MPH | gust MPH | rain 1hr in | rain 24hr in | rain mn in | humidity % | barometer mb |
| 20260505004604 | 78 | 22 | 0.0 | 0.0 | 0.00 | 0.00 | 0.00 | 54 | 999.1 |
| 20260505003045 | 79 | 21 | 0.0 | 0.0 | 0.00 | 0.00 | 0.00 | 52 | 999.0 |
| 20260505001545 | 80 | 22 | 0.0 | 0.0 | 0.00 | 0.00 | 0.00 | 50 | 998.8 |
| 20260505000045 | 81 | 18 | 0.0 | 0.0 | 0.00 | 0.00 | 0.00 | 49 | 998.9 |
| 20260504234542 | 82 | 18 | 0.0 | 0.0 | 0.00 | 0.00 | 0.00 | 47 | 998.9 |
| 20260504233054 | 83 | 22 | 0.0 | 0.0 | 0.00 | 0.00 | 0.00 | 45 | 999.0 |
| 20260504231541 | 83 | 22 | 0.0 | 0.0 | 0.00 | 0.00 | 0.00 | 44 | 999.0 |
| 20260504230039 | 84 | 22 | 0.0 | 0.0 | 0.00 | 0.00 | 0.00 | 44 | 999.1 |
| 20260504224538 | 85 | 21 | 0.0 | 0.0 | 0.00 | 0.00 | 0.00 | 42 | 999.0 |
| 20260504223034 | 85 | 22 | 0.0 | 0.0 | 0.00 | 0.00 | 0.00 | 42 | 999.0 |
| 20260504221532 | 85 | 22 | 0.0 | 0.0 | 0.00 | 0.00 | 0.00 | 42 | 999.0 |
| 20260504220024 | 85 | 23 | 0.0 | 0.0 | 0.00 | 0.00 | 0.00 | 41 | 999.0 |
| 20260504214523 | 86 | 22 | 0.0 | 0.0 | 0.00 | 0.00 | 0.00 | 40 | 999.1 |
| 20260504213022 | 86 | 22 | 0.0 | 0.0 | 0.00 | 0.00 | 0.00 | 40 | 999.1 |
| 20260504211521 | 87 | 22 | 0.0 | 0.0 | 0.00 | 0.00 | 0.00 | 40 | 999.2 |
| 20260504210020 | 87 | 22 | 0.0 | 0.0 | 0.00 | 0.00 | 0.00 | 39 | 999.2 |
| 20260504204519 | 87 | 22 | 0.0 | 0.0 | 0.00 | 0.00 | 0.00 | 39 | 999.4 |
| 20260504203059 | 87 | 22 | 0.0 | 0.0 | 0.00 | 0.00 | 0.00 | 38 | 999.4 |
| 20260504201609 | 87 | 22 | 0.0 | 0.0 | 0.00 | 0.00 | 0.00 | 37 | 999.8 |
| 20260504200044 | 87 | 25 | 0.0 | 0.0 | 0.00 | 0.00 | 0.00 | 37 | 999.8 |
| 20260504194543 | 87 | 22 | 0.0 | 0.0 | 0.00 | 0.00 | 0.00 | 37 | 999.9 |
| 20260504193018 | 86 | 24 | 0.0 | 0.0 | 0.00 | 0.00 | 0.00 | 37 | 1000.1 |
| 20260504191518 | 87 | 22 | 0.0 | 0.0 | 0.00 | 0.00 | 0.00 | 37 | 1000.1 |
| 20260504190100 | 87 | 22 | 0.0 | 0.0 | 0.00 | 0.00 | 0.00 | 36 | 1000.2 |
| 20260504184601 | 87 | 22 | 0.0 | 0.0 | 0.00 | 0.00 | 0.00 | 37 | 1000.4 |
| 20260504183039 | 87 | 22 | 0.0 | 0.0 | 0.00 | 0.00 | 0.00 | 37 | 1000.5 |
| 20260504181542 | 85 | 22 | 0.0 | 0.0 | 0.00 | 0.00 | 0.00 | 37 | 1000.7 |
| 20260504180023 | 86 | 22 | 0.0 | 0.0 | 0.00 | 0.00 | 0.00 | 37 | 1000.8 |
| 20260504174522 | 85 | 22 | 0.0 | 0.0 | 0.00 | 0.00 | 0.00 | 38 | 1000.9 |
| 20260504173020 | 84 | 22 | 0.0 | 0.0 | 0.00 | 0.00 | 0.00 | 38 | 1001.0 |
| 20260504171519 | 84 | 22 | 0.0 | 0.0 | 0.00 | 0.00 | 0.00 | 38 | 1001.1 |
| 20260504081550 | 0 | 0.0 | 0.0 | 0.00 | 0.00 | 0.00 | 1004.2 | ||
| 20260504044537 | 0 | 0.0 | 0.0 | 0.00 | 0.00 | 0.00 | 1005.4 | ||
| 20260504043040 | 0 | 0.0 | 0.0 | 0.00 | 0.00 | 0.00 | 1005.6 | ||
| 20260504041512 | 0 | 0.0 | 0.0 | 0.00 | 0.00 | 0.00 | 1005.4 | ||
| 20260504040013 | 0 | 0.0 | 0.0 | 0.00 | 0.00 | 0.00 | 1005.8 | ||
| 20260504034501 | 0 | 0.0 | 0.0 | 0.00 | 0.00 | 0.00 | 1006.0 | ||
| 20260504033002 | 0 | 0.0 | 0.0 | 0.00 | 0.00 | 0.00 | 1006.2 | ||
| 20260504031502 | 0 | 0.0 | 0.0 | 0.00 | 0.00 | 0.00 | 1006.4 | ||
| 20260504030100 | 0 | 0.0 | 0.0 | 0.00 | 0.00 | 0.00 | 1006.4 | ||
| 20260504024600 | 0 | 0.0 | 0.0 | 0.00 | 0.00 | 0.00 | 1006.4 | ||
| 20260504023058 | 0 | 0.0 | 0.0 | 0.00 | 0.00 | 0.00 | 1006.3 | ||
| 20260504021558 | 0 | 0.0 | 0.0 | 0.00 | 0.00 | 0.00 | 1006.3 | ||
| 20260504020132 | 0 | 0.0 | 0.0 | 0.00 | 0.00 | 0.00 | 1006.0 | ||
| 20260504014559 | 0 | 0.0 | 0.0 | 0.00 | 0.00 | 0.00 | 1005.8 | ||
| 20260504013058 | 0 | 0.0 | 0.0 | 0.00 | 0.00 | 0.00 | 1005.8 | ||
| 20260504011543 | 0 | 0.0 | 0.0 | 0.00 | 0.00 | 0.00 | 1005.6 |